Location: Blienschwiller
(48.3416°N, 7.4182°E)
Time: 08:14:33
(UTC+00:00)

STARLINK-1081 - Pass Details

Date: 18 February 2020
Orbit: 379 x 381 km, 53.0° (Epoch: 31 March)

Event Time Altitude Azimuth Distance (km) Brightness Sun altitude
Exits shadow 04:13:02 16° 142° (SE) 1,121 5.5 -23.9°
Drops below altitude 10° 04:15:20 10° 96° (E) 1,414 6.7 -23.5°
Enters shadow 05:11:15 -70° 242° (WSW) 12,380 10.4 -14.3°
Maximum altitude 05:48:49 89° 173° (S) 392 2.9 -8.1°
